STARLINK-36251, 68093

Orbit data source: Space-Track

STARLINK-36251, 68093 is a payload satellite owned by SpaceX/Seattle (US) in LEO that was launched on Wed, 04 Mar 2026 UTC via an FALCON 9 launch vehicle from the Air Force Eastern Test Range (AFETR). Payload-class satellites include a variety of spacecraft equipped with specific instruments for various scientific and technological missions. These include communications satellites like Starlink; space stations such as the ISS; scientific satellites like the Hubble; Earth observation satellites from companies like Planet Labs, Umbra, and HawkEye 360; GPS; miniature CubeSats for education and research; and military/defense satellites.

Loading next visibility...
Identifier
68093, 2026-042AA
Orbit
LEO
Country
Flag of USUS
Related business
Manufacturer
SpaceX/Seattle
Mission
Operational Commercial Communications
Bus & Motor
STARLINK V2MO, Unknown motor
Mass
575 kg wet, ~530 kg dry
Launch date (UTC)
2026-03-04 (4 months ago)
Launch vehicle
FALCON 9
Launch site
Air Force Eastern Test Range (AFETR)
Object type
Payload
Rocket body
Debris
Shape & HBR
Box + 2 Pan, 17.7 m
Radar Cross Section
36.964 m², Large (>1 m²)

Expand to show TLE details & history
Last TLE update: 21 hours ago

TLE from 21 hours ago
0 STARLINK-36251
1 68093U 26042AA  26170.96461574  .00018529  00000-0  55865-3 0  9995
2 68093  53.1594  62.2674 0001272  95.4935 264.6213 15.34372351 17971
Epoch: 2026-06-19T23:09Z
TLE epoch observation values (Epoch: 2026-06-19T23:09:02.799Z)
Latitude
-0.00002°
Longitude
166.81969°
Altitude
463.768 km
Speed
7.636 km/s
True Right ascension
04h 09m 04s
True Declination
0° 00' 00"
Sunlit
Object was in daylight at epoch
Visualization orbit readout
Latitude
Unknown
Longitude
Unknown
Altitude
Unknown
Speed
Unknown
Apparent Right ascension
Unknown
Apparent Declination
Unknown
Sunlit
N/A
Visualization observer readout
Local Sidereal Time
07:19:31
Azimuth
Unknown
Elevation
Unknown
Doppler factor
Unknown
Orbital elements
Apogee altitude
463.913 km
Perigee altitude
462.172 km
Semi-major axis
6,841.179 km
Eccentricity
0.00013
Inclination
53.1594°
RAAN
62.2674°
Arg. of periapsis
95.4935°
True anomaly
264.60679°
Mean anomaly
264.6213°
Eccentric anomaly
264.61404°
Mean motion
3.83572 °/min
Orbital period
93.85 mins
BSTAR
0.00055865
Loading maneuver chart data...
Computing Atmospheric mass density...
Loading historical data...
Loading historical data...
Loading historical data...
Loading historical data...
Loading historical data...
Loading historical data...
Loading historical data...

Documentation

Showing up to 5 results
|